Location: Marcé
(47.5801°N, 0.3280°W)
Time: 08:54:33
(UTC+01:00)

Tiros 1 despin weight - Pass Details

Date: 18 December 2021
Orbit: 592 x 641 km, 48.2° (Epoch: 25 January)

Event Time Altitude Azimuth Distance (km) Brightness Sun altitude
Rises 08:17:41 0° 215° (SW) 2,893 ? -4.7°
Reaches altitude 10° 08:20:14 10° 204° (SSW) 1,981 ? -4.3°
Maximum altitude 08:24:08 28° 146° (SE) 1,151 ? -3.8°
Drops below altitude 10° 08:27:59 10° 87° (E) 1,962 ? -3.2°
Sets 08:30:30 0° 75° (ENE) 2,860 ? -2.9°
